Home   Weather   Kelowna   Past weeks
Flag for Canada

Past Weather in Kelowna, British Columbia, Canada — Yesterday and Last 2 Weeks

Now
45 °F

Overcast.


Feels Like: 45 °F
Forecast: 52 / 38 °F
Wind: 2 mph from North

Location: Kelowna Airport

Current Time: Mar 25, 2019 at 11:55:30 pm

Latest Report: Mar 25, 2019 at 11:00 pm


Visibility: 9 mi

Pressure: 29.89 "Hg

Humidity: 76%

Dew Point: 37 °F

Location of KelownaLocation

Past Weather in Kelowna — Graph

°F

Kelowna Temperature Yesterday

Maximum temperature yesterday: 55 °F (at 3:00 pm)
Minimum temperature yesterday: 36 °F (at 2:00 am)
Average temperature yesterday: 45 °F

High & Low Weather Summary for the Past Weeks

 TemperatureHumidityPressure
High63 °F (Mar 21, 4:00 pm)100% (Mar 12, 5:35 am)30.50 "Hg (Mar 12, 5:35 am)
Low14 °F (Mar 13, 6:00 am)32% (Mar 23, 4:00 pm)29.78 "Hg (Mar 12, 3:00 pm)
Average38 °F75%30.18 "Hg
* Reported Mar 10 10:00 pm — Mar 25 10:00 pm, Kelowna. Weather by CustomWeather, © 2019

Note: Actual official high and low records may vary slightly from our data, if they occured in-between our weather recording intervals... More about our weather records

Advertising

Kelowna Weather History for the Previous 24 Hours

Scroll right to see more
 ConditionsComfort  
Time TempWeatherWind HumidityBarometerVisibility
10:00 pm
Mon, Mar 25
46 °FOvercast.No wind71%29.90 "Hg9 mi
9:00 pm45 °FMostly cloudy.7 mph76%29.90 "Hg9 mi
8:00 pm48 °FOvercast.8 mph66%29.91 "Hg9 mi
7:00 pm50 °FBroken clouds.6 mph67%29.92 "Hg9 mi
6:00 pm54 °FPartly sunny.7 mph58%29.95 "Hg9 mi
5:00 pm55 °FPartly sunny.8 mph55%29.95 "Hg9 mi
4:00 pm57 °FSunny.2 mph51%29.98 "Hg9 mi
3:00 pm55 °FPassing clouds.2 mph55%30.01 "Hg9 mi
2:00 pm55 °FSunny.5 mph59%30.05 "Hg9 mi
1:00 pm55 °FPartly sunny.10 mph63%30.09 "Hg9 mi
12:00 pm52 °FPartly sunny.No wind77%30.09 "Hg9 mi
11:00 am50 °FPartly sunny.No wind82%30.11 "Hg9 mi
10:21 am50 °FCloudy.2 mph76%30.13 "Hg9 mi
10:00 am48 °FMostly cloudy.3 mph87%30.14 "Hg9 mi
9:00 am46 °FBroken clouds.2 mph93%30.14 "Hg9 mi
8:00 am43 °FMore clouds than sun.No wind100%30.14 "Hg9 mi
7:00 am41 °FMostly cloudy.2 mph100%30.14 "Hg9 mi
6:28 am43 °FMostly cloudy.2 mph100%30.14 "Hg9 mi
5:59 am43 °FFog.No wind100%30.14 "Hg6 mi
5:19 am43 °FMostly cloudy.No wind93%30.14 "Hg9 mi
5:00 am45 °FLight rain. Mostly cloudy.2 mph100%30.14 "Hg9 mi
4:00 am43 °FLight rain. Overcast.2 mph100%30.15 "Hg9 mi
3:21 am45 °FLight rain. Fog.No wind100%30.16 "Hg6 mi
3:11 am43 °FOvercast.2 mph100%30.16 "Hg9 mi
2:40 am43 °FLight rain. Fog.2 mph100%30.16 "Hg4 mi
2:00 am45 °FLight rain. Mostly cloudy.No wind100%30.16 "Hg9 mi
1:14 am45 °FLight rain. Mostly cloudy.No wind93%30.16 "Hg9 mi
1:00 am45 °FLight rain. Overcast.2 mph93%30.16 "Hg9 mi
12:00 am45 °FLight rain. Overcast.3 mph100%30.16 "Hg9 mi
11:00 pm
Sun, Mar 24
45 °FLight rain. Overcast.7 mph93%30.16 "Hg9 mi
Weather by CustomWeather, © 2019

See weather overview